Torna al catalogo

NOAA 16 DEB

AttivoSSO
NORAD 41152·DEBRIS·🇺🇸 United States

Lanciato Sep 21, 2000 da Vandenberg Space Force Base

Loading…

Prossimi Passaggi (prossime 24 ore)

TLE

AggiornatoSource: Space-Track

Epoca: Sep 14, 2026, 14:07 UTC

1 41152U 00055CK  26257.58829265  .00003333  00000-0  11112-2 0  9990
2 41152  98.8441  24.8446 0009165 266.3961  93.6177 14.38231906559516

Traccia NOAA 16 DEB in tempo reale con AllMySat

Download on the App Store